Total_Precipitation_Accumulation
0.43 0.53 0.56 0.78 0.69 1.08 0.77 0.50 0.30 0.52 0.37 0.29 0.07 0.07 0.04 0.07 0.09 0.01 0.04 0.02 0.08 0.00 0.03 0.08 0.14 0.34 0.23 0.20 0.22 0.23 0.22 0.19 0.14 0.11 0.12 0.09 0.05 0.08 0.18 0.20 0.14 0.07 0.04 0.02 0.00 0.00 0.00 0.00 0.00 0.00 0.01 0.00 0.00 0.00 0.00 0.00 0.00 0.00 0.00 0.00 0.00 0.00 0.00 0.00 0.00 0.00 0.00 0.00 0.00 0.00 0.00 0.00 0.00 0.00 0.00 0.00 0.00 0.00 0.00 0.00 0.00 0.00 0.00 0.00 0.00 0.00 0.00 0.01
0.54 0.73 0.49 0.39 0.58 0.81 0.81 0.89 0.66 0.48 0.14 0.18 0.27 0.09 0.08 0.05 0.11 0.06 0.00 0.00 0.09 0.03 0.03 0.05 0.09 0.19 0.27 0.20 0.19 0.19 0.18 0.16 0.15 0.09 0.07 0.03 0.06 0.12 0.20 0.22 0.16 0.07 0.04 0.07 0.06 0.04 0.04 0.00 0.00 0.00 0.00 0.00 0.00 0.00 0.00 0.00 0.00 0.00 0.00 0.00 0.00 0.00 0.00 0.00 0.00 0.00 0.00 0.00 0.00 0.00 0.00 0.00 0.00 0.00 0.00 0.00 0.00 0.00 0.00 0.00 0.00 0.00 0.00 0.00 0.00 0.00 0.00 0.02
0.63 0.52 0.77 0.50 0.49 0.61 0.75 0.88 0.48 0.43 0.53 0.12 0.11 0.11 0.07 0.12 0.09 0.12 0.03 0.01 0.01 0.08 0.08 0.07 0.07 0.11 0.23 0.23 0.14 0.16 0.14 0.14 0.13 0.08 0.02 0.03 0.09 0.12 0.17 0.17 0.15 0.09 0.07 0.11 0.10 0.09 0.07 0.02 0.00 0.00 0.00 0.00 0.00 0.00 0.00 0.00 0.00 0.00 0.00 0.00 0.00 0.00 0.00 0.00 0.00 0.00 0.00 0.00 0.00 0.00 0.00 0.00 0.00 0.00 0.00 0.00 0.00 0.00 0.00 0.00 0.00 0.00 0.00 0.00 0.00 0.00 0.01 0.02
0.48 0.57 0.57 0.58 0.51 0.51 0.53 0.70 0.89 0.36 0.23 0.28 0.16 0.07 0.09 0.10 0.11 0.15 0.06 0.01 0.15 0.07 0.05 0.06 0.08 0.09 0.10 0.12 0.16 0.12 0.14 0.14 0.12 0.09 0.02 0.03 0.09 0.11 0.12 0.14 0.11 0.12 0.10 0.14 0.15 0.12 0.08 0.04 0.00 0.00 0.00 0.00 0.00 0.00 0.00 0.00 0.00 0.00 0.00 0.00 0.00 0.00 0.00 0.00 0.00 0.00 0.00 0.00 0.00 0.00 0.00 0.00 0.00 0.00 0.00 0.00 0.00 0.00 0.00 0.00 0.00 0.00 0.00 0.00 0.00 0.00 0.01 0.01
0.39 0.45 0.59 0.53 0.46 0.49 0.36 0.54 0.89 0.50 0.37 0.39 0.21 0.08 0.15 0.09 0.21 0.12 0.11 0.02 0.10 0.16 0.09 0.14 0.07 0.09 0.10 0.06 0.10 0.11 0.13 0.17 0.14 0.02 0.02 0.05 0.08 0.10 0.09 0.12 0.10 0.12 0.15 0.16 0.20 0.16 0.12 0.07 0.01 0.00 0.00 0.01 0.00 0.00 0.00 0.00 0.00 0.00 0.00 0.00 0.00 0.00 0.00 0.00 0.00 0.00 0.00 0.00 0.00 0.00 0.00 0.00 0.00 0.00 0.00 0.00 0.00 0.00 0.00 0.00 0.00 0.00 0.00 0.00 0.00 0.00 0.00 0.01
0.34 0.37 0.45 0.59 0.50 0.45 0.42 0.36 0.56 0.90 0.29 0.16 0.15 0.08 0.13 0.08 0.21 0.23 0.14 0.04 0.06 0.12 0.14 0.09 0.19 0.19 0.14 0.07 0.10 0.09 0.11 0.34 0.19 0.02 0.03 0.08 0.08 0.09 0.07 0.09 0.12 0.10 0.15 0.21 0.25 0.22 0.18 0.12 0.05 0.00 0.01 0.01 0.00 0.00 0.00 0.00 0.00 0.00 0.00 0.00 0.00 0.00 0.00 0.00 0.00 0.00 0.00 0.00 0.00 0.00 0.00 0.00 0.00 0.00 0.00 0.00 0.00 0.00 0.00 0.00 0.00 0.00 0.00 0.00 0.00 0.00 0.00 0.00
0.30 0.27 0.40 0.58 0.54 0.36 0.39 0.40 0.44 0.73 0.43 0.36 0.09 0.08 0.05 0.08 0.14 0.21 0.19 0.07 0.05 0.04 0.09 0.19 0.13 0.14 0.13 0.11 0.10 0.08 0.06 0.06 0.00 0.02 0.07 0.08 0.08 0.09 0.07 0.08 0.13 0.11 0.12 0.19 0.26 0.30 0.24 0.21 0.10 0.04 0.00 0.00 0.01 0.00 0.00 0.00 0.00 0.00 0.00 0.00 0.00 0.00 0.00 0.00 0.00 0.00 0.00 0.00 0.00 0.00 0.00 0.00 0.00 0.00 0.00 0.00 0.00 0.00 0.00 0.00 0.00 0.00 0.00 0.00 0.00 0.00 0.00 0.00
0.27 0.32 0.29 0.40 0.55 0.49 0.42 0.44 0.40 0.50 0.47 0.27 0.34 0.07 0.06 0.05 0.14 0.17 0.18 0.05 0.06 0.04 0.23 0.34 0.27 0.14 0.09 0.18 0.15 0.13 0.03 0.02 0.00 0.03 0.10 0.10 0.08 0.09 0.09 0.08 0.12 0.11 0.12 0.16 0.23 0.32 0.29 0.25 0.16 0.06 0.01 0.00 0.00 0.00 0.00 0.00 0.00 0.00 0.00 0.00 0.00 0.00 0.00 0.00 0.00 0.00 0.00 0.00 0.00 0.00 0.00 0.00 0.00 0.00 0.00 0.00 0.00 0.00 0.00 0.00 0.00 0.00 0.00 0.00 0.00 0.00 0.00 0.00
0.22 0.37 0.40 0.29 0.38 0.54 0.43 0.44 0.43 0.42 0.51 0.27 0.16 0.14 0.10 0.05 0.12 0.25 0.07 0.04 0.18 0.05 0.43 0.43 0.17 0.23 0.10 0.11 0.05 0.05 0.03 0.00 0.00 0.02 0.07 0.11 0.08 0.10 0.08 0.10 0.10 0.13 0.11 0.12 0.16 0.24 0.31 0.27 0.18 0.08 0.04 0.00 0.00 0.00 0.00 0.00 0.00 0.00 0.00 0.00 0.00 0.00 0.00 0.00 0.00 0.00 0.00 0.00 0.00 0.00 0.00 0.00 0.00 0.00 0.00 0.00 0.00 0.00 0.00 0.00 0.00 0.00 0.00 0.00 0.00 0.00 0.00 0.00
0.16 0.48 0.27 0.37 0.30 0.55 0.51 0.43 0.55 0.40 0.44 0.31 0.19 0.15 0.11 0.07 0.10 0.35 0.06 0.09 0.38 0.33 0.09 0.20 0.65 0.16 0.09 0.10 0.06 0.07 0.01 0.10 0.03 0.00 0.02 0.05 0.04 0.03 0.05 0.07 0.07 0.09 0.11 0.12 0.13 0.19 0.29 0.28 0.19 0.10 0.05 0.04 0.00 0.00 0.00 0.00 0.00 0.00 0.00 0.00 0.00 0.00 0.00 0.00 0.00 0.00 0.00 0.00 0.00 0.00 0.00 0.00 0.00 0.00 0.00 0.00 0.00 0.00 0.00 0.00 0.00 0.00 0.00 0.00 0.00 0.00 0.00 0.00
0.22 0.18 0.21 0.35 0.53 0.44 0.51 0.35 0.45 0.43 0.28 0.33 0.20 0.18 0.13 0.09 0.10 0.25 0.10 0.10 0.21 0.15 0.27 0.06 0.60 0.14 0.19 0.05 0.04 0.07 0.01 0.00 0.00 0.00 0.00 0.01 0.02 0.01 0.02 0.06 0.07 0.10 0.10 0.11 0.12 0.13 0.17 0.16 0.15 0.14 0.12 0.06 0.02 0.01 0.00 0.00 0.00 0.00 0.00 0.00 0.00 0.00 0.00 0.00 0.00 0.00 0.00 0.00 0.00 0.00 0.00 0.00 0.00 0.00 0.00 0.00 0.00 0.00 0.00 0.00 0.00 0.00 0.00 0.00 0.00 0.00 0.00 0.00
0.15 0.16 0.22 0.19 0.36 0.47 0.53 0.42 0.43 0.43 0.34 0.31 0.25 0.20 0.12 0.11 0.09 0.26 0.24 0.34 0.34 0.15 0.29 0.40 0.19 0.52 0.21 0.31 0.04 0.20 0.02 0.10 0.00 0.00 0.00 0.00 0.00 0.00 0.00 0.01 0.04 0.08 0.11 0.17 0.16 0.11 0.12 0.17 0.20 0.24 0.18 0.12 0.05 0.02 0.00 0.00 0.00 0.00 0.00 0.00 0.00 0.00 0.00 0.00 0.00 0.00 0.00 0.00 0.00 0.00 0.00 0.00 0.00 0.00 0.00 0.00 0.00 0.00 0.00 0.00 0.00 0.00 0.00 0.00 0.00 0.00 0.00 0.00
0.17 0.17 0.15 0.17 0.30 0.49 0.39 0.38 0.39 0.40 0.43 0.31 0.37 0.25 0.10 0.13 0.10 0.29 0.26 0.43 0.19 0.20 0.45 0.19 0.43 0.81 0.09 0.20 0.06 0.07 0.01 0.06 0.03 0.00 0.00 0.00 0.00 0.00 0.00 0.01 0.03 0.09 0.14 0.17 0.17 0.12 0.11 0.17 0.24 0.23 0.15 0.08 0.06 0.02 0.00 0.00 0.00 0.00 0.00 0.00 0.00 0.00 0.00 0.00 0.00 0.00 0.00 0.00 0.00 0.00 0.00 0.00 0.00 0.00 0.00 0.00 0.00 0.00 0.00 0.00 0.00 0.00 0.00 0.00 0.00 0.00 0.00 0.00
0.15 0.21 0.15 0.25 0.21 0.59 0.37 0.42 0.40 0.37 0.44 0.39 0.31 0.41 0.15 0.12 0.17 0.24 0.33 0.76 0.18 0.27 0.63 0.25 0.54 0.60 0.19 0.14 0.17 0.01 0.01 0.01 0.00 0.00 0.00 0.00 0.00 0.00 0.01 0.01 0.02 0.04 0.10 0.17 0.23 0.21 0.16 0.16 0.21 0.20 0.09 0.06 0.04 0.01 0.00 0.00 0.00 0.00 0.00 0.00 0.00 0.00 0.00 0.00 0.00 0.00 0.00 0.00 0.00 0.00 0.00 0.00 0.00 0.00 0.00 0.00 0.00 0.00 0.00 0.00 0.00 0.00 0.00 0.00 0.00 0.00 0.00 0.00
0.19 0.14 0.15 0.18 0.24 0.34 0.31 0.37 0.46 0.37 0.48 0.51 0.36 0.40 0.26 0.10 0.27 0.24 1.01 0.55 0.76 0.63 0.46 0.50 1.03 1.00 0.32 0.16 0.21 0.05 0.05 0.00 0.00 0.00 0.00 0.00 0.00 0.00 0.00 0.00 0.02 0.02 0.04 0.09 0.17 0.22 0.17 0.14 0.14 0.15 0.09 0.03 0.01 0.01 0.01 0.00 0.00 0.00 0.00 0.00 0.00 0.00 0.00 0.00 0.00 0.00 0.00 0.00 0.00 0.00 0.00 0.00 0.00 0.00 0.00 0.00 0.00 0.00 0.00 0.00 0.00 0.00 0.00 0.00 0.00 0.00 0.00 0.00
0.20 0.14 0.13 0.15 0.21 0.35 0.34 0.36 0.42 0.48 0.47 0.43 0.50 0.66 0.38 0.11 0.26 0.28 1.00 0.60 0.69 0.47 0.71 0.81 0.78 0.48 0.49 0.22 0.07 0.10 0.03 0.01 0.00 0.00 0.01 0.00 0.00 0.24 0.00 0.00 0.01 0.02 0.03 0.07 0.13 0.18 0.15 0.10 0.12 0.13 0.12 0.05 0.03 0.02 0.01 0.00 0.00 0.00 0.00 0.00 0.00 0.00 0.00 0.00 0.00 0.00 0.00 0.00 0.00 0.00 0.00 0.00 0.00 0.00 0.00 0.00 0.00 0.00 0.00 0.00 0.00 0.00 0.00 0.00 0.00 0.00 0.00 0.00
0.17 0.16 0.13 0.19 0.20 0.25 0.26 0.35 0.42 0.50 0.56 0.63 0.50 0.49 0.28 0.46 0.46 0.76 0.79 0.87 1.31 1.40 0.82 1.29 0.70 0.25 0.78 0.15 0.15 0.07 0.08 0.00 0.00 0.00 0.00 0.00 0.00 0.00 0.00 0.01 0.03 0.05 0.06 0.09 0.13 0.17 0.16 0.11 0.10 0.09 0.10 0.08 0.04 0.01 0.00 0.00 0.00 0.00 0.00 0.00 0.00 0.00 0.00 0.00 0.00 0.00 0.00 0.00 0.00 0.00 0.00 0.00 0.00 0.00 0.00 0.00 0.00 0.00 0.00 0.00 0.00 0.00 0.00 0.00 0.00 0.00 0.00 0.00
0.16 0.17 0.13 0.21 0.17 0.25 0.14 0.56 0.67 0.57 0.49 0.70 0.45 0.89 0.55 0.56 0.54 0.55 0.82 1.13 0.99 1.03 1.04 0.55 0.85 0.70 0.52 0.21 0.04 0.05 0.05 0.00 0.00 0.00 0.00 0.00 0.00 0.00 0.00 0.02 0.04 0.06 0.08 0.12 0.14 0.21 0.20 0.14 0.09 0.11 0.12 0.09 0.04 0.01 0.00 0.00 0.00 0.00 0.00 0.00 0.00 0.00 0.00 0.00 0.00 0.00 0.00 0.00 0.00 0.00 0.00 0.00 0.00 0.00 0.00 0.00 0.00 0.00 0.00 0.00 0.00 0.00 0.00 0.00 0.00 0.00 0.00 0.00
0.21 0.20 0.17 0.17 0.17 0.27 0.19 0.35 0.56 0.68 0.56 0.76 0.88 0.84 0.85 0.74 0.92 0.69 0.74 0.70 0.45 0.52 0.65 0.94 0.51 0.48 0.35 0.15 0.07 0.09 0.06 0.04 0.00 0.00 0.00 0.00 0.00 0.00 0.00 0.01 0.04 0.07 0.12 0.16 0.19 0.20 0.17 0.14 0.09 0.11 0.11 0.10 0.05 0.01 0.00 0.00 0.00 0.00 0.00 0.00 0.00 0.00 0.00 0.00 0.00 0.00 0.00 0.00 0.00 0.00 0.00 0.00 0.00 0.00 0.00 0.00 0.00 0.00 0.00 0.00 0.00 0.00 0.00 0.00 0.00 0.00 0.00 0.00
0.14 0.15 0.15 0.18 0.19 0.32 0.27 0.34 0.50 0.64 0.56 0.90 1.13 1.13 0.75 0.63 0.75 0.58 0.45 0.29 0.13 0.04 0.02 0.06 0.20 0.20 0.11 0.06 0.12 0.11 0.01 0.00 0.00 0.00 0.00 0.00 0.00 0.00 0.00 0.02 0.04 0.07 0.11 0.14 0.14 0.15 0.14 0.14 0.12 0.12 0.14 0.10 0.05 0.01 0.00 0.00 0.00 0.00 0.00 0.00 0.00 0.00 0.00 0.00 0.00 0.00 0.00 0.00 0.00 0.00 0.00 0.00 0.00 0.00 0.00 0.00 0.00 0.00 0.00 0.00 0.00 0.00 0.00 0.00 0.00 0.00 0.00 0.00
0.20 0.18 0.18 0.27 0.20 0.36 0.41 0.34 0.47 0.40 0.48 0.54 0.49 0.45 0.33 0.27 0.21 0.34 0.33 0.04 0.05 0.13 0.22 0.13 0.21 0.05 0.08 0.09 0.04 0.00 0.08 0.04 0.00 0.00 0.00 0.00 0.00 0.00 0.01 0.03 0.05 0.07 0.09 0.11 0.09 0.11 0.10 0.12 0.12 0.09 0.05 0.03 0.01 0.00 0.00 0.00 0.00 0.00 0.00 0.00 0.00 0.00 0.00 0.00 0.00 0.00 0.00 0.00 0.00 0.00 0.00 0.00 0.00 0.00 0.00 0.00 0.00 0.00 0.00 0.00 0.00 0.00 0.00 0.00 0.00 0.00 0.00 0.00
0.16 0.23 0.25 0.29 0.33 0.41 0.55 0.34 0.44 0.28 0.30 0.49 0.31 0.32 0.16 0.06 0.04 0.05 0.02 0.05 0.00 0.03 0.18 0.30 0.22 0.14 0.07 0.12 0.35 0.22 0.07 0.28 0.00 0.00 0.00 0.00 0.00 0.00 0.00 0.02 0.05 0.07 0.08 0.08 0.08 0.10 0.11 0.12 0.13 0.06 0.02 0.01 0.00 0.00 0.00 0.00 0.00 0.00 0.00 0.00 0.00 0.00 0.00 0.00 0.00 0.00 0.00 0.00 0.00 0.00 0.00 0.00 0.00 0.00 0.00 0.00 0.00 0.00 0.00 0.00 0.00 0.00 0.00 0.00 0.00 0.00 0.00 0.00
0.21 0.24 0.46 0.35 0.40 0.44 0.69 0.35 0.46 0.26 0.27 0.46 0.25 0.17 0.14 0.01 0.01 0.01 0.00 0.01 0.00 0.00 0.05 0.23 0.11 0.08 0.05 0.04 0.38 0.09 0.09 0.04 0.03 0.00 0.00 0.00 0.00 0.00 0.00 0.01 0.03 0.04 0.05 0.06 0.10 0.14 0.13 0.10 0.06 0.02 0.01 0.01 0.00 0.00 0.00 0.00 0.00 0.00 0.00 0.00 0.00 0.00 0.00 0.00 0.00 0.00 0.00 0.00 0.00 0.00 0.00 0.00 0.00 0.00 0.00 0.00 0.00 0.00 0.00 0.00 0.00 0.00 0.00 0.00 0.00 0.00 0.00 0.00
0.19 0.28 0.34 0.55 0.50 0.44 0.49 0.30 0.47 0.45 0.33 0.12 0.11 0.14 0.15 0.02 0.00 0.00 0.00 0.00 0.01 0.00 0.00 0.27 0.17 0.13 0.06 0.10 0.04 0.46 0.02 0.05 0.01 0.02 0.00 0.00 0.00 0.00 0.00 0.01 0.01 0.02 0.03 0.04 0.05 0.08 0.09 0.05 0.03 0.01 0.01 0.01 0.01 0.00 0.00 0.00 0.00 0.00 0.00 0.00 0.00 0.00 0.00 0.00 0.00 0.00 0.00 0.00 0.00 0.00 0.00 0.00 0.00 0.00 0.00 0.00 0.00 0.00 0.00 0.00 0.00 0.00 0.00 0.00 0.00 0.00 0.00 0.00
0.45 0.27 0.39 0.45 0.57 0.41 0.65 0.50 0.85 0.36 0.17 0.39 0.44 0.08 0.09 0.02 0.00 0.00 0.00 0.00 0.06 0.03 0.05 0.27 0.19 0.02 0.03 0.06 0.25 0.27 0.19 0.03 0.04 0.00 0.00 0.05 0.00 0.00 0.00 0.00 0.00 0.02 0.02 0.03 0.03 0.03 0.03 0.02 0.01 0.01 0.02 0.02 0.01 0.00 0.00 0.00 0.00 0.00 0.00 0.00 0.00 0.00 0.00 0.00 0.00 0.00 0.00 0.00 0.00 0.00 0.00 0.00 0.00 0.00 0.00 0.00 0.00 0.00 0.00 0.00 0.00 0.00 0.00 0.00 0.00 0.00 0.00 0.00
0.97 0.87 0.54 0.60 0.63 0.54 0.85 0.92 0.36 0.35 0.27 0.31 0.09 0.02 0.02 0.00 0.00 0.00 0.00 0.00 0.00 0.00 0.08 0.38 0.04 0.11 0.02 0.08 0.19 0.18 0.21 0.14 0.00 0.00 0.00 0.04 0.03 0.00 0.00 0.00 0.00 0.01 0.01 0.01 0.02 0.02 0.02 0.01 0.01 0.03 0.04 0.03 0.02 0.01 0.00 0.00 0.00 0.00 0.00 0.00 0.00 0.00 0.00 0.00 0.00 0.00 0.00 0.00 0.00 0.00 0.00 0.00 0.00 0.00 0.00 0.00 0.00 0.00 0.00 0.00 0.00 0.00 0.00 0.00 0.00 0.00 0.00 0.00
1.54 1.20 1.10 1.27 1.01 0.91 1.40 0.67 0.17 0.43 0.33 0.12 0.11 0.11 0.02 0.04 0.00 0.01 0.02 0.19 0.04 0.00 0.00 0.00 0.14 0.03 0.02 0.18 0.18 0.14 0.12 0.12 0.01 0.00 0.00 0.00 0.00 0.00 0.00 0.00 0.00 0.00 0.00 0.00 0.01 0.02 0.01 0.02 0.03 0.05 0.05 0.04 0.02 0.01 0.00 0.00 0.00 0.00 0.00 0.00 0.00 0.00 0.00 0.00 0.00 0.00 0.00 0.00 0.00 0.00 0.00 0.00 0.00 0.00 0.00 0.00 0.00 0.00 0.00 0.00 0.00 0.00 0.00 0.00 0.00 0.00 0.00 0.00
1.98 1.72 1.30 1.34 1.21 0.61 0.41 0.19 0.12 0.20 0.02 0.02 0.01 0.01 0.00 0.01 0.00 0.09 0.16 0.05 0.02 0.00 0.00 0.06 0.11 0.07 0.03 0.06 0.17 0.16 0.06 0.07 0.01 0.00 0.00 0.03 0.00 0.00 0.00 0.00 0.00 0.00 0.00 0.00 0.03 0.02 0.01 0.03 0.05 0.05 0.05 0.04 0.03 0.02 0.00 0.00 0.00 0.00 0.00 0.00 0.00 0.00 0.00 0.00 0.00 0.00 0.00 0.00 0.00 0.00 0.00 0.00 0.00 0.00 0.00 0.00 0.00 0.00 0.00 0.00 0.00 0.00 0.00 0.00 0.00 0.00 0.00 0.00
1.40 1.60 1.84 1.80 1.24 1.08 0.89 0.33 0.07 0.04 0.03 0.06 0.05 0.05 0.04 0.00 0.08 0.06 0.18 0.08 0.01 0.00 0.00 0.23 0.01 0.14 0.12 0.05 0.17 0.01 0.12 0.03 0.09 0.03 0.00 0.01 0.00 0.01 0.01 0.00 0.00 0.00 0.00 0.00 0.01 0.01 0.01 0.02 0.04 0.04 0.03 0.03 0.03 0.01 0.00 0.00 0.00 0.00 0.00 0.00 0.00 0.00 0.00 0.00 0.00 0.00 0.00 0.00 0.00 0.00 0.00 0.00 0.00 0.00 0.00 0.00 0.00 0.00 0.00 0.00 0.00 0.00 0.00 0.00 0.00 0.00 0.00 0.00
1.04 1.52 1.92 2.63 2.93 3.01 1.31 0.50 0.57 0.44 0.16 0.03 0.01 0.01 0.08 0.01 0.21 0.19 0.11 0.14 0.00 0.00 0.00 0.00 0.05 0.07 0.12 0.05 0.03 0.01 0.07 0.12 0.00 0.00 0.02 0.05 0.02 0.00 0.00 0.00 0.00 0.00 0.00 0.00 0.00 0.00 0.00 0.01 0.02 0.02 0.02 0.02 0.01 0.00 0.00 0.00 0.00 0.00 0.00 0.00 0.00 0.00 0.00 0.00 0.00 0.00 0.00 0.00 0.00 0.00 0.00 0.00 0.00 0.00 0.00 0.00 0.00 0.00 0.00 0.00 0.00 0.00 0.00 0.00 0.00 0.00 0.00 0.00
1.90 1.31 1.56 2.88 3.51 2.13 1.45 0.98 1.47 0.89 0.43 0.44 0.12 0.05 0.13 0.34 0.26 0.11 0.20 0.08 0.00 0.00 0.00 0.00 0.02 0.05 0.05 0.10 0.08 0.04 0.06 0.04 0.06 0.00 0.00 0.00 0.00 0.00 0.00 0.00 0.00 0.00 0.00 0.00 0.00 0.00 0.00 0.01 0.02 0.02 0.01 0.00 0.00 0.00 0.00 0.00 0.00 0.00 0.00 0.00 0.00 0.00 0.00 0.00 0.00 0.00 0.00 0.00 0.00 0.00 0.00 0.00 0.00 0.00 0.00 0.00 0.00 0.00 0.00 0.00 0.00 0.00 0.00 0.00 0.00 0.00 0.00 0.00
1.57 1.90 2.45 2.42 1.69 1.54 1.28 1.12 2.00 2.08 1.31 1.04 0.67 0.85 0.63 0.80 0.41 0.32 0.24 0.01 0.01 0.00 0.00 0.00 0.01 0.06 0.06 0.04 0.09 0.06 0.02 0.00 0.01 0.00 0.00 0.00 0.00 0.00 0.00 0.00 0.00 0.00 0.00 0.00 0.01 0.00 0.01 0.01 0.01 0.01 0.00 0.00 0.00 0.00 0.00 0.00 0.00 0.00 0.00 0.00 0.00 0.00 0.00 0.00 0.00 0.00 0.00 0.00 0.00 0.00 0.00 0.00 0.00 0.00 0.00 0.00 0.00 0.00 0.00 0.00 0.00 0.00 0.00 0.00 0.00 0.00 0.00 0.00
1.62 1.95 2.03 2.39 1.98 1.65 1.08 0.95 2.19 1.65 1.73 2.35 1.63 2.33 1.30 0.95 1.46 0.65 0.13 0.01 0.03 0.00 0.00 0.00 0.01 0.03 0.05 0.06 0.10 0.06 0.04 0.03 0.01 0.00 0.00 0.00 0.00 0.00 0.00 0.00 0.00 0.00 0.01 0.00 0.00 0.01 0.01 0.00 0.01 0.00 0.00 0.00 0.00 0.00 0.00 0.00 0.00 0.00 0.00 0.00 0.00 0.00 0.00 0.00 0.00 0.00 0.00 0.00 0.00 0.00 0.00 0.00 0.00 0.00 0.00 0.00 0.00 0.00 0.00 0.00 0.00 0.00 0.00 0.00 0.00 0.00 0.00 0.00
1.96 2.61 3.89 2.99 2.66 1.59 1.74 1.56 2.54 2.20 2.73 2.71 2.49 2.33 2.34 2.32 2.06 0.71 0.20 0.04 0.01 0.00 0.00 0.00 0.00 0.01 0.03 0.05 0.03 0.01 0.01 0.01 0.03 0.03 0.00 0.00 0.00 0.00 0.00 0.00 0.00 0.00 0.00 0.00 0.00 0.00 0.02 0.02 0.01 0.01 0.00 0.00 0.00 0.00 0.00 0.00 0.00 0.00 0.00 0.00 0.00 0.00 0.00 0.00 0.00 0.01 0.01 0.00 0.00 0.00 0.00 0.00 0.00 0.00 0.00 0.00 0.00 0.00 0.00 0.00 0.00 0.00 0.00 0.00 0.00 0.00 0.00 0.00
2.58 3.41 2.79 2.82 3.01 2.61 2.14 1.68 2.02 3.05 3.73 3.59 4.24 4.06 4.03 3.56 1.95 0.94 0.36 0.11 0.01 0.00 0.00 0.00 0.00 0.00 0.01 0.26 0.03 0.00 0.00 0.05 0.00 0.01 0.01 0.00 0.00 0.00 0.00 0.00 0.00 0.00 0.00 0.00 0.00 0.00 0.01 0.01 0.01 0.00 0.00 0.00 0.00 0.00 0.00 0.00 0.00 0.00 0.00 0.00 0.00 0.00 0.00 0.03 0.00 0.00 0.01 0.01 0.00 0.00 0.00 0.00 0.00 0.00 0.00 0.00 0.00 0.00 0.00 0.00 0.00 0.00 0.00 0.00 0.00 0.00 0.00 0.00
3.34 5.20 3.36 4.44 3.05 2.90 2.05 2.26 2.99 3.65 5.13 5.07 5.19 5.89 4.56 2.66 1.63 0.95 0.43 0.23 0.03 0.00 0.00 0.00 0.00 0.00 0.00 0.01 0.01 0.01 0.00 0.00 0.00 0.00 0.00 0.01 0.00 0.00 0.00 0.00 0.00 0.00 0.04 0.01 0.00 0.02 0.00 0.02 0.01 0.00 0.00 0.00 0.00 0.00 0.00 0.00 0.00 0.00 0.00 0.00 0.00 0.00 0.00 0.00 0.00 0.00 0.00 0.00 0.01 0.00 0.00 0.00 0.00 0.00 0.00 0.00 0.00 0.00 0.00 0.00 0.00 0.00 0.00 0.00 0.00 0.00 0.00 0.00
5.97 4.17 6.59 3.66 2.20 2.03 2.29 2.49 4.33 5.07 5.86 5.21 4.88 5.56 4.40 2.37 1.40 0.88 0.46 0.19 0.19 0.21 0.04 0.02 0.03 0.01 0.01 0.01 0.01 0.01 0.00 0.00 0.00 0.00 0.00 0.00 0.00 0.00 0.00 0.00 0.00 0.00 0.00 0.04 0.01 0.02 0.02 0.01 0.01 0.00 0.00 0.00 0.00 0.00 0.00 0.00 0.00 0.00 0.00 0.00 0.00 0.00 0.00 0.00 0.00 0.00 0.00 0.01 0.02 0.00 0.00 0.00 0.00 0.00 0.00 0.00 0.00 0.00 0.00 0.00 0.00 0.00 0.00 0.00 0.00 0.00 0.00 0.00
4.40 4.29 3.29 2.36 2.43 2.35 2.48 3.85 4.71 7.35 6.43 7.21 5.74 3.56 2.31 1.28 1.12 0.61 0.31 0.35 0.47 0.28 0.05 0.13 0.19 0.11 0.06 0.05 0.04 0.02 0.00 0.00 0.02 0.01 0.02 0.01 0.01 0.00 0.00 0.00 0.00 0.00 0.00 0.00 0.02 0.00 0.00 0.07 0.01 0.01 0.00 0.00 0.00 0.00 0.00 0.00 0.00 0.00 0.01 0.00 0.00 0.00 0.00 0.00 0.00 0.01 0.02 0.02 0.01 0.00 0.00 0.00 0.00 0.00 0.00 0.00 0.00 0.00 0.00 0.00 0.00 0.00 0.00 0.00 0.00 0.00 0.00 0.00
2.95 3.43 5.47 2.74 1.78 2.20 2.62 3.53 5.53 7.19 9.05 8.20 5.19 3.39 1.88 0.96 0.56 0.20 0.14 0.13 0.21 0.77 0.31 0.09 0.09 0.17 0.10 0.09 0.09 0.05 0.02 0.02 0.04 0.02 0.02 0.06 0.02 0.00 0.00 0.00 0.00 0.00 0.00 0.01 0.02 0.00 0.13 0.10 0.03 0.02 0.01 0.00 0.00 0.00 0.00 0.00 0.00 0.00 0.00 0.03 0.05 0.00 0.00 0.01 0.05 0.05 0.17 0.11 0.12 0.11 0.03 0.03 0.00 0.00 0.00 0.00 0.00 0.00 0.00 0.00 0.00 0.00 0.00 0.00 0.00 0.00 0.00 0.00
4.55 5.43 3.42 2.54 1.95 1.67 3.03 4.83 10.37 9.95 8.07 7.01 5.32 3.15 2.02 0.80 0.40 0.17 0.06 0.05 0.15 0.20 0.31 0.32 0.22 0.14 0.14 0.11 0.07 0.06 0.07 0.03 0.02 0.07 0.03 0.11 0.03 0.01 0.00 0.00 0.00 0.00 0.00 0.01 0.07 0.04 0.02 0.07 0.09 0.09 0.03 0.01 0.01 0.00 0.00 0.00 0.00 0.00 0.01 0.01 0.00 0.00 0.01 0.02 0.11 0.04 0.02 0.14 0.06 0.08 0.09 0.04 0.01 0.00 0.00 0.00 0.00 0.00 0.00 0.00 0.00 0.00 0.00 0.00 0.00 0.00 0.00 0.00
3.56 3.61 3.11 2.27 1.63 1.93 3.99 9.16 10.29 8.88 7.10 5.51 3.95 2.73 1.53 0.70 0.39 0.15 0.05 0.05 0.30 0.18 0.28 0.39 0.37 0.54 0.40 0.23 0.22 0.12 0.28 0.12 0.10 0.11 0.11 0.10 0.04 0.03 0.01 0.00 0.00 0.02 0.00 0.11 0.09 0.05 0.11 0.07 0.05 0.03 0.02 0.01 0.01 0.00 0.01 0.00 0.00 0.01 0.03 0.00 0.00 0.01 0.15 0.05 0.02 0.00 0.03 0.05 0.05 0.14 0.12 0.11 0.02 0.00 0.00 0.00 0.00 0.00 0.00 0.00 0.00 0.00 0.00 0.00 0.00 0.00 0.00 0.14
4.24 5.43 3.31 2.03 1.99 2.15 4.26 9.35 7.63 5.26 5.46 4.46 3.53 2.39 1.38 0.69 0.37 0.17 0.07 0.05 0.11 0.16 0.14 0.12 0.20 0.27 0.31 0.30 0.28 0.16 0.56 0.26 0.22 0.20 0.14 0.10 0.08 0.03 0.02 0.01 0.01 0.01 0.02 0.02 0.02 0.28 0.10 0.21 0.16 0.11 0.08 0.05 0.02 0.00 0.00 0.00 0.00 0.00 0.01 0.00 0.06 0.12 0.04 0.13 0.16 0.04 0.01 0.08 0.13 0.34 0.36 0.12 0.05 0.05 0.01 0.00 0.00 0.00 0.00 0.00 0.00 0.00 0.00 0.00 0.00 0.00 0.03 0.06
4.87 3.46 3.88 2.69 2.69 2.59 4.39 5.12 4.95 5.30 5.03 4.04 2.73 1.51 1.04 0.71 0.40 0.23 0.28 0.45 0.41 0.29 0.22 0.21 0.14 0.17 0.16 0.16 0.17 0.18 0.26 0.55 0.28 0.19 0.14 0.09 0.05 0.07 0.06 0.03 0.01 0.05 0.20 0.03 0.04 0.30 0.06 1.27 0.20 0.16 0.12 0.08 0.05 0.03 0.01 0.00 0.00 0.01 0.03 0.01 0.05 0.05 0.02 0.06 0.18 0.27 0.19 0.08 0.24 0.23 0.47 0.24 0.18 0.06 0.01 0.00 0.00 0.00 0.00 0.00 0.00 0.00 0.00 0.00 0.00 0.00 0.00 0.00
3.59 3.39 3.97 3.85 3.65 4.89 3.36 4.66 4.95 4.62 4.04 3.33 2.03 1.49 1.01 0.75 0.45 0.34 0.23 0.17 0.19 0.28 0.23 0.27 0.26 0.08 0.09 0.09 0.17 0.24 0.27 0.78 0.44 0.24 0.19 0.13 0.08 0.07 0.03 0.02 0.03 0.48 0.06 0.37 0.24 1.46 1.01 0.27 0.34 0.33 0.42 0.22 0.12 0.07 0.04 0.01 0.00 0.02 0.01 0.01 0.02 0.01 0.06 0.06 0.48 0.82 0.55 0.15 0.11 0.41 0.27 0.19 0.13 0.13 0.23 0.09 0.04 0.11 0.01 0.01 0.01 0.00 0.00 0.00 0.00 0.00 0.00 0.00
3.24 3.52 3.36 5.20 5.02 6.32 5.34 2.84 3.16 3.37 3.05 2.28 1.90 1.69 1.14 0.96 0.53 0.30 0.24 0.25 0.19 0.37 0.31 0.39 0.23 0.20 0.24 0.15 0.18 0.16 0.62 0.34 0.47 0.30 0.17 0.15 0.13 0.14 0.08 0.07 0.34 0.13 0.40 0.35 0.13 0.34 0.38 0.24 0.41 0.67 0.77 0.65 0.44 0.25 0.17 0.07 0.03 0.03 0.03 0.01 0.00 0.00 0.01 0.08 0.35 0.30 0.33 0.28 0.20 0.21 0.14 0.07 0.03 0.04 0.00 0.01 0.07 0.01 0.04 0.06 0.20 0.04 0.14 0.01 0.01 0.01 0.00 0.00
3.64 3.70 4.22 4.31 7.82 6.63 4.16 2.88 2.53 2.09 1.93 1.76 1.92 1.41 1.10 0.93 0.62 0.35 0.23 0.25 0.15 0.41 0.35 0.67 0.85 0.60 0.55 0.62 0.59 0.40 0.28 0.73 0.46 0.40 0.30 0.22 0.14 0.13 0.22 0.12 0.13 0.21 0.16 0.17 1.75 0.38 0.38 0.43 0.39 0.52 0.62 0.52 0.35 0.18 0.09 0.03 0.09 0.09 0.06 0.15 0.05 0.14 0.13 0.17 0.32 0.32 0.29 0.16 0.25 0.28 0.21 0.15 0.17 0.08 0.06 0.19 0.28 0.11 0.22 0.23 0.11 0.15 0.10 0.05 0.03 0.03 0.02 0.00
3.39 3.20 3.53 4.03 4.56 5.76 4.18 2.52 2.42 2.18 1.84 1.39 1.52 1.41 1.03 0.76 0.61 0.56 0.27 0.85 0.30 0.23 0.37 0.46 0.46 0.54 0.52 0.50 0.56 0.64 0.45 0.35 0.34 0.42 0.25 0.09 0.06 0.04 0.03 0.02 0.01 0.01 0.03 0.26 0.13 0.49 0.88 0.56 0.44 0.36 0.31 0.26 0.28 0.13 0.08 0.06 0.08 0.08 0.07 0.03 0.03 0.08 0.05 0.26 0.35 0.06 0.19 0.23 0.19 0.11 0.04 0.22 0.12 0.12 0.19 0.08 0.19 0.13 0.10 0.02 0.00 0.00 0.00 0.00 0.00 0.00 0.00 0.00
3.07 2.88 2.67 2.98 3.11 3.68 3.92 3.26 2.16 2.23 2.18 1.69 1.49 1.25 0.73 0.62 0.63 0.72 0.81 0.40 0.33 0.36 0.76 0.80 0.55 0.42 0.33 0.28 0.41 0.44 0.38 0.33 0.36 0.30 0.20 0.17 0.10 0.12 0.04 0.03 0.04 0.03 0.18 0.54 0.22 0.51 0.80 0.57 0.45 0.28 0.26 0.23 0.14 0.09 0.07 0.07 0.10 0.10 0.10 0.10 0.07 0.01 0.02 0.08 0.05 0.01 0.11 0.43 0.19 0.09 0.07 0.13 0.13 0.17 0.23 0.13 0.03 0.02 0.04 0.02 0.01 0.01 0.00 0.00 0.00 0.00 0.00 0.00
2.21 2.40 1.95 2.70 1.93 2.12 3.05 2.84 1.70 1.52 1.92 1.91 1.98 1.47 1.10 0.74 0.56 0.48 0.51 0.62 0.50 0.82 0.41 0.73 0.69 0.44 0.37 0.37 0.49 0.48 0.53 0.80 0.56 0.34 0.34 0.23 0.22 0.16 0.39 0.17 0.12 0.09 0.08 0.09 0.12 0.20 0.67 0.72 0.52 0.22 0.24 0.25 0.15 0.10 0.08 0.10 0.07 0.07 0.12 0.04 0.02 0.02 0.02 0.05 0.01 0.01 0.14 0.10 0.13 0.12 0.06 0.06 0.15 0.15 0.24 0.21 0.14 0.21 0.22 0.04 0.02 0.01 0.00 0.00 0.00 0.00 0.00 0.00
1.69 1.64 1.51 1.43 1.60 2.05 1.83 1.46 1.56 1.77 2.20 1.49 2.63 2.04 1.46 1.18 0.78 0.51 0.71 0.61 0.95 0.66 0.59 0.61 0.41 0.31 0.37 0.42 0.62 0.70 0.61 0.55 0.50 0.49 0.60 0.31 0.38 0.35 0.30 0.31 0.27 0.52 0.37 0.40 0.47 0.71 0.71 0.73 0.64 0.41 0.47 0.42 0.25 0.15 0.08 0.09 0.11 0.12 0.09 0.06 0.04 0.03 0.02 0.01 0.03 0.06 0.07 0.15 0.08 0.19 0.23 0.11 0.10 0.19 0.08 0.06 0.05 0.03 0.01 0.01 0.01 0.00 0.00 0.00 0.00 0.00 0.00 0.00
1.47 1.19 1.40 1.41 1.51 1.44 1.50 1.55 1.54 1.75 2.08 2.16 2.24 1.81 1.33 1.20 0.92 0.70 0.64 0.66 0.64 0.67 0.72 0.63 0.70 0.54 0.82 0.99 0.95 0.67 0.69 0.65 0.68 0.68 0.59 0.99 0.85 0.86 0.92 0.70 0.70 0.45 0.53 0.76 0.58 0.60 1.26 0.93 0.79 0.79 0.94 0.91 0.55 0.36 0.18 0.32 0.38 0.32 0.26 0.25 0.13 0.14 0.08 0.04 0.07 0.10 0.19 0.06 0.09 0.11 0.16 0.07 0.11 0.10 0.05 0.02 0.01 0.01 0.01 0.01 0.00 0.00 0.00 0.00 0.00 0.00 0.00 0.00
1.35 1.03 0.99 1.33 1.47 1.38 1.26 1.28 1.43 1.83 2.21 2.04 1.93 1.70 1.18 1.03 0.82 0.83 1.01 1.31 0.86 0.80 0.63 0.59 0.62 0.65 0.83 1.13 1.13 0.92 0.88 1.02 0.93 1.19 1.28 1.61 0.88 0.93 0.89 0.88 0.79 0.85 1.22 1.01 1.28 1.41 0.90 1.05 1.03 0.98 1.15 1.15 0.65 0.36 0.25 0.39 0.63 0.42 0.36 0.19 0.18 0.12 0.03 0.07 0.01 0.00 0.01 0.21 0.09 0.07 0.13 0.26 0.25 0.10 0.06 0.07 0.08 0.08 0.07 0.02 0.02 0.03 0.01 0.01 0.01 0.00 0.00 0.00